ZHONGXING-2A

Last updated on Sat Dec 13 2025 00:02:48 GMT+0000 (Coordinated Universal Time)

1 38352U 12028A 25346.08177936 -.00000283 00000+0 00000+0 0 9997 2 38352 0.9711 86.5253 0002555 185.0943 297.0995 1.00269936 49423
UTC large
Height (km)
Speed (km/s)
/
Latitude / Longitude
Inclination (degrees)
Orbital Period (minutes)
Azimuth
Elevation
Range (km)
Doppler Factor

Next 0 passes for location: London (51.5072 / 0.1276)

Sorry there are no passes over London.